DW6178 Weather Reports


Display with metric or nautical units.
time (UTC)temp
F
wind
direction
speed
MPH
gust
MPH
rain 1hr
in
rain 24hr
in
rain mn
in
humidity
%
barometer
mb
20260831034532 66 287 0.0 0.0 0.00 0.00 0.00 35 1008.3
20260831033014 66 288 0.0 0.0 0.00 0.00 0.00 34 1008.1
20260831031514 66 290 0.0 0.0 0.00 0.00 0.00 35 1008.0
20260831030111 66 290 0.0 0.0 0.00 0.00 0.00 37 1007.8
20260831024556 66 293 0.0 0.0 0.00 0.00 0.00 36 1007.7
20260831023037 67 293 0.0 0.0 0.00 0.00 0.00 36 1007.6
20260831021543 67 285 0.0 0.0 0.00 0.00 0.00 37 1007.3
20260831020018 68 285 0.0 0.0 0.00 0.00 0.00 38 1007.1
20260831014518 68 287 0.0 0.0 0.00 0.00 0.00 40 1007.0
20260831013101 68 253 0.0 2.0 0.00 0.00 0.00 46 1006.9
20260831011608 69 276 0.0 4.0 0.00 0.00 0.00 51 1006.9
20260831011500 69 285 0.0 4.0 0.00 0.00 0.00 51 1006.8
20260831010044 69 211 0.0 5.0 0.00 0.00 0.00 55 1006.9
20260831004542 69 204 0.0 4.0 0.00 0.00 0.00 57 1006.9
20260831003024 70 201 1.0 7.0 0.00 0.00 0.00 59 1007.0
20260831001523 70 207 2.0 8.0 0.00 0.00 0.00 57 1007.0
20260831000014 71 166 1.0 5.0 0.00 0.00 0.00 53 1006.9
20260830234506 72 203 1.0 6.0 0.00 0.00 0.00 54 1007.0
20260830233047 72 188 3.0 9.0 0.00 0.00 0.00 58 1007.0
20260830231545 72 221 0.0 9.0 0.00 0.00 0.00 59 1007.0
20260830230031 72 194 1.0 7.0 0.00 0.00 0.00 59 1007.1
20260830224527 73 212 2.0 7.0 0.00 0.00 0.00 57 1007.1
20260830223009 73 200 2.0 8.0 0.00 0.00 0.00 59 1007.4
20260830221508 73 256 1.0 7.0 0.00 0.00 0.00 57 1007.6
20260830220107 75 228 3.0 9.0 0.00 0.00 0.00 54 1007.8
20260830214547 75 158 2.0 8.0 0.00 0.00 0.00 52 1007.9
20260830213047 77 174 3.0 9.0 0.00 0.00 0.00 49 1008.0
20260830211532 77 191 4.0 9.0 0.00 0.00 0.00 49 1008.4
20260830210027 77 162 0.0 8.0 0.00 0.00 0.00 45 1008.5
20260830204507 77 187 4.0 12.0 0.00 0.00 0.00 47 1008.6
20260830203005 77 176 0.0 9.0 0.00 0.00 0.00 42 1008.7
20260830201605 77 181 2.0 9.0 0.00 0.00 0.00 44 1008.7
20260830200055 77 186 2.0 7.0 0.00 0.00 0.00 42 1008.8
20260830194524 77 238 0.0 7.0 0.00 0.00 0.00 43 1009.0
20260830193028 76 198 1.0 8.0 0.00 0.00 0.00 45 1009.0
20260830191509 76 174 1.0 7.0 0.00 0.00 0.00 45 1009.2
20260830190008 76 215 2.0 7.0 0.00 0.00 0.00 42 1009.2
20260830184517 76 174 2.0 7.0 0.00 0.00 0.00 44 1009.4
20260830183006 75 204 3.0 7.0 0.00 0.00 0.00 43 1009.4
20260830181503 75 207 2.0 6.0 0.00 0.00 0.00 41 1009.4
20260830180103 74 212 1.0 4.0 0.00 0.00 0.00 41 1009.3
20260830174601 74 190 2.0 5.0 0.00 0.00 0.00 39 1009.3
20260830173107 73 180 1.0 4.0 0.00 0.00 0.00 43 1009.2
20260830171540 73 191 2.0 4.0 0.00 0.00 0.00 39 1009.0
20260830170039 73 200 1.0 6.0 0.00 0.00 0.00 36 1008.8
20260830164542 73 295 0.0 3.0 0.00 0.00 0.00 35 1008.8
20260830163012 72 293 0.0 3.0 0.00 0.00 0.00 33 1008.8
20260830161554 71 266 0.0 2.0 0.00 0.00 0.00 34 1008.8
20260830160050 70 201 0.0 2.0 0.00 0.00 0.00 38 1008.6
20260830154534 70 221 0.0 1.0 0.00 0.00 0.00 40 1008.6
20260830153027 69 291 0.0 2.0 0.00 0.00 0.00 42 1008.4
20260830151507 68 293 0.0 2.0 0.00 0.00 0.00 45 1008.5
20260830150004 67 242 0.0 1.0 0.00 0.00 0.00 48 1008.5
20260830144545 66 278 0.0 1.0 0.00 0.00 0.00 47 1008.4
20260830143043 66 277 0.0 1.0 0.00 0.00 0.00 46 1008.3
20260830141526 65 276 0.0 2.0 0.00 0.00 0.00 46 1008.1
20260830140023 65 274 0.0 1.0 0.00 0.00 0.00 48 1008.0
20260830134511 65 248 0.0 1.0 0.00 0.00 0.00 49 1007.9
20260830133007 65 248 0.0 1.0 0.00 0.00 0.00 49 1007.7
20260830131546 65 248 0.0 1.0 0.00 0.00 0.00 47 1007.6
20260830130042 64 239 0.0 1.0 0.00 0.00 0.00 48 1007.5
20260830124522 65 233 0.0 1.0 0.00 0.00 0.00 48 1007.4
20260830123021 65 218 0.0 1.0 0.00 0.00 0.00 48 1007.3
20260830121501 65 228 0.0 3.0 0.00 0.00 0.00 48 1007.2
20260830120001 65 242 0.0 1.0 0.00 0.00 0.00 49 1007.2
20260830114542 65 226 0.0 3.0 0.00 0.00 0.00 50 1007.2
20260830113040 65 200 1.0 4.0 0.00 0.00 0.00 51 1007.1
20260830111523 65 251 0.0 1.0 0.00 0.00 0.00 52 1007.0
20260830110021 65 251 0.0 6.0 0.00 0.00 0.00 53 1007.0
20260830104502 65 201 0.0 3.0 0.00 0.00 0.00 54 1007.0
20260830103002 65 214 1.0 3.0 0.00 0.00 0.00 53 1007.0
20260830101543 65 232 1.0 3.0 0.00 0.00 0.00 53 1006.9
20260830100100 66 256 1.0 3.0 0.00 0.00 0.00 53 1006.7
20260830094522 66 253 1.0 2.0 0.00 0.00 0.00 52 1006.7
20260830093020 66 250 1.0 3.0 0.00 0.00 0.00 52 1006.9
20260830091502 66 249 1.0 2.0 0.00 0.00 0.00 51 1006.9
20260830090100 66 249 0.0 4.0 0.00 0.00 0.00 51 1006.9
20260830084540 67 238 0.0 2.0 0.00 0.00 0.00 50 1007.0
20260830083039 67 248 0.0 2.0 0.00 0.00 0.00 49 1007.0
20260830081520 67 246 1.0 4.0 0.00 0.00 0.00 49 1007.0
20260830080018 67 250 0.0 2.0 0.00 0.00 0.00 48 1006.9
20260830074559 68 257 1.0 2.0 0.00 0.00 0.00 47 1007.0
20260830073058 68 260 1.0 2.0 0.00 0.00 0.00 46 1007.1
20260830071541 68 269 0.0 2.0 0.00 0.00 0.00 47 1007.4
20260830070039 68 256 0.0 2.0 0.00 0.00 0.00 45 1007.5
20260830064520 68 276 1.0 3.0 0.00 0.00 0.00 45 1007.4
20260830063021 68 285 1.0 3.0 0.00 0.00 0.00 45 1007.4
20260830061501 68 285 1.0 2.0 0.00 0.00 0.00 44 1007.5
20260830060001 68 287 1.0 3.0 0.00 0.00 0.00 44 1007.5
20260830054558 69 288 1.0 2.0 0.00 0.00 0.00 44 1007.6
20260830053058 69 287 1.0 3.0 0.00 0.00 0.00 43 1007.6
20260830051556 69 288 1.0 3.0 0.00 0.00 0.00 43 1007.5
20260830050055 69 291 1.0 3.0 0.00 0.00 0.00 43 1007.7
20260830044558 70 287 1.0 3.0 0.00 0.00 0.00 43 1007.7
20260830043054 70 291 1.0 3.0 0.00 0.00 0.00 43 1007.6
20260830041548 70 273 1.0 3.0 0.00 0.00 0.00 43 1007.5
20260830040037 70 293 1.0 3.0 0.00 0.00 0.00 42 1007.2